Location: Crescent
(42.8242°N, 73.7329°W)
Time: 07:43:03
(UTC+00:00)

Vanguard 1 Rocket - Pass Details

Date: 21 February 2026
Orbit: 653 x 4214 km, 34.3° (Epoch: 12 March)

Event Time Altitude Azimuth Distance (km) Brightness Sun altitude
Rises 15:17:20 0° 191° (S) 3,425 11.0 31.0°
Reaches altitude 10° 15:20:42 10° 167° (SSE) 2,845 11.3 31.4°
Maximum altitude 15:24:29 15° 133° (SE) 2,915 11.5 31.7°
Drops below altitude 10° 15:29:26 10° 101° (ESE) 3,943 11.3 32.2°
Sets 15:35:42 0° 83° (E) 5,741 11.7 32.7°
